Location: Unspecified
(0.0000°N, 0.0000°E)
Time: 11:13:21
(UTC+00:00)

Vanguard 2 - All Passes

Search period start: 20 April 2014 00:00
Search period end: 30 April 2014 00:00
Orbit: 555 x 2949 km, 32.9° (Epoch: 19 April)

Date Brightness Start Highest point End Pass type
(mag) Time Alt. Az. Time Alt. Az. Time Alt. Az.
20 Apr - 01:00:33 10° WSW 01:18:40 74° NW 01:32:32 10° NE visible
20 Apr - 03:18:20 10° W 03:30:48 27° NW 03:40:00 10° NNE visible
20 Apr - 12:14:13 10° NW 12:18:08 65° NE 12:22:58 10° ESE daylight
20 Apr - 14:23:58 10° WSW 14:27:22 18° SSW 14:31:44 10° SSE daylight
20 Apr - 18:52:56 10° S 18:55:13 11° SSE 18:57:38 10° SSE visible
20 Apr - 20:58:39 10° SSW 21:11:01 28° SSE 21:25:04 10° E visible
20 Apr - 23:08:06 10° SW 23:25:26 65° SE 23:41:38 10° ENE visible
21 Apr - 01:21:09 10° WSW 01:38:41 58° NW 01:52:05 10° NE visible
21 Apr - 03:41:15 10° WNW 03:51:04 20° NNW 03:58:43 10° N visible
21 Apr - 10:28:04 10° N 10:29:28 11° NNE 10:30:51 10° NE daylight
21 Apr - 12:33:57 10° WNW 12:37:51 58° SSW 12:42:47 10° SE daylight
21 Apr - 14:46:21 10° SSW 14:47:49 11° SSW 14:49:25 10° S daylight
21 Apr - 19:11:04 10° S 19:16:36 13° SSE 19:22:55 10° SE visible
21 Apr - 21:17:55 10° SSW 21:31:39 36° SSE 21:47:10 10° E visible
21 Apr - 23:27:53 10° SW 23:45:37 81° SE 00:01:53 10° ENE visible
22 Apr - 01:42:13 10° WSW 01:58:43 45° NW 02:11:26 10° NNE visible
22 Apr - 04:05:14 10° WNW 04:11:36 14° NNW 04:16:58 10° N visible
22 Apr - 10:46:03 10° NNW 10:49:22 23° NNE 10:52:34 10° E daylight
22 Apr - 12:54:11 10° W 12:57:44 29° SSW 13:02:08 10° SSE daylight
22 Apr - 19:29:48 10° S 19:37:44 17° SSE 19:47:11 10° ESE visible
22 Apr - 21:37:15 10° SW 21:52:03 46° SE 22:08:37 10° ENE visible
22 Apr - 23:47:54 10° WSW 00:05:43 82° NW 00:21:49 10° NE visible
23 Apr - 02:03:50 10° W 02:18:52 34° NW 02:30:37 10° NNE visible
23 Apr - 11:05:08 10° NW 11:09:07 48° NE 11:13:03 10° ESE daylight
23 Apr - 13:15:08 10° WSW 13:17:46 16° SSW 13:20:51 10° SSE daylight
23 Apr - 19:48:42 10° SSW 19:58:32 23° SSE 20:10:37 10° ESE visible
23 Apr - 21:56:41 10° SW 22:12:16 59° SE 22:29:33 10° ENE visible
24 Apr - 00:08:13 10° WSW 00:25:49 66° NW 00:41:30 10° NE visible
24 Apr - 02:26:07 10° W 02:39:13 26° NNW 02:49:40 10° NNE visible
24 Apr - 09:18:27 10° N 09:19:55 11° NNE 09:21:17 10° NE daylight
24 Apr - 11:24:44 10° WNW 11:28:48 75° SW 11:32:56 10° SE daylight
24 Apr - 20:07:42 10° SSW 20:19:02 30° SSE 20:33:16 10° E visible
24 Apr - 22:16:17 10° SW 22:32:23 74° SE 22:50:02 10° ENE visible
25 Apr - 00:28:55 10° WSW 00:45:57 52° NW 01:00:59 10° NE visible
25 Apr - 02:49:10 10° WNW 02:59:49 20° NNW 03:08:34 10° NNE visible
25 Apr - 09:36:19 10° NNW 09:40:02 21° NNE 09:43:09 10° ENE daylight
25 Apr - 11:44:51 10° W 11:48:30 33° SSW 11:52:18 10° SSE daylight
25 Apr - 18:21:57 10° S 18:25:55 12° SSE 18:30:25 10° SE visible
25 Apr - 20:26:49 10° SSW 20:39:17 39° SE 20:55:10 10° E visible
25 Apr - 22:36:04 10° SW 22:52:27 90° NW 23:10:09 10° NE visible
26 Apr - 00:50:05 10° W 01:06:12 41° NW 01:20:20 10° NNE visible
26 Apr - 03:13:02 10° NW 03:20:44 15° NNW 03:27:18 10° N visible
26 Apr - 09:55:19 10° NW 09:59:57 39° NNE 10:03:42 10° ESE daylight
26 Apr - 12:05:41 10° WSW 12:08:18 17° SSW 12:11:02 10° S daylight
26 Apr - 18:39:46 10° S 18:46:36 17° SSE 18:55:04 10° ESE visible
26 Apr - 20:46:04 10° SW 20:59:21 51° SE 21:16:26 10° ENE visible
26 Apr - 22:56:07 10° WSW 23:12:33 73° NW 23:30:00 10° NE visible
27 Apr - 01:11:49 10° W 01:26:38 32° NNW 01:39:34 10° NNE visible
27 Apr - 03:37:50 10° NW 03:41:55 11° NNW 03:45:38 10° N visible
27 Apr - 08:07:10 10° N 08:10:08 13° NNE 08:12:39 10° NE daylight
27 Apr - 10:14:50 10° NW 10:19:41 84° NE 10:23:38 10° ESE daylight
27 Apr - 18:58:18 10° SSW 19:06:59 23° SE 19:18:23 10° E visible
27 Apr - 21:05:28 10° SW 21:19:19 66° SE 21:37:11 10° ENE visible
27 Apr - 23:16:29 10° WSW 23:32:43 58° NW 23:49:37 10° NE visible
28 Apr - 01:34:13 10° WNW 01:47:19 25° NNW 01:58:45 10° NNE visible
28 Apr - 08:25:30 10° NNW 08:30:25 22° NNE 08:34:07 10° ENE daylight
28 Apr - 10:34:49 10° WNW 10:39:18 45° SW 10:43:06 10° SE daylight
28 Apr - 19:17:07 10° SSW 19:27:05 32° SE 19:40:46 10° E visible
28 Apr - 21:25:02 10° SW 21:39:17 83° SE 21:57:32 10° ENE visible
28 Apr - 23:37:16 10° W 23:53:02 46° NNW 00:09:05 10° NE visible
29 Apr - 01:57:17 10° WNW 02:08:18 19° NNW 02:17:56 10° NNE visible
29 Apr - 06:37:01 10° N 06:39:20 11° NNE 06:41:25 10° NNE daylight
29 Apr - 08:44:33 10° NW 08:50:30 37° NNE 08:54:40 10° E daylight
29 Apr - 10:55:24 10° W 10:58:53 22° SW 11:02:01 10° SSE daylight
29 Apr - 17:33:13 10° SSE 17:35:16 11° SSE 17:37:29 10° SE daylight
29 Apr - 19:36:08 10° SSW 19:46:59 43° SE 20:02:26 10° ENE visible
29 Apr - 21:44:51 10° WSW 21:59:18 80° NW 22:17:32 10° NE visible
29 Apr - 23:58:32 10° W 00:00:00 13° W 00:00:00 13° W night (unlit)
